Location: Newark
(49.0903°N, 0.8053°W)
Time: 22:02:33
(UTC+00:00)

X-37B - Visible Passes

Search period start: 20 September 2020 00:00
Search period end: 30 September 2020 00:00
Orbit: 386 x 387 km, 45.0° (Epoch: 18 September)

Date Brightness Start Highest point End Pass type
(mag) Time Alt. Az. Time Alt. Az. Time Alt. Az.
20 Sep 3.5 03:05:33 13° ESE 03:05:33 13° ESE 03:06:02 10° ESE visible
20 Sep 1.6 04:37:50 21° WSW 04:39:19 32° SSW 04:42:13 10° SE visible
21 Sep 2.2 03:42:02 26° SE 03:42:02 26° SE 03:43:51 10° ESE visible
21 Sep 2.4 05:14:41 10° WSW 05:17:01 19° SSW 05:19:21 10° SSE visible
22 Sep 1.9 04:18:37 25° SSW 04:18:38 25° SSW 04:21:19 10° SE visible
23 Sep 3.6 03:23:01 10° SE 03:23:01 10° SE 03:23:05 10° SE visible
23 Sep 2.7 04:55:19 12° SW 04:56:14 13° SSW 04:57:46 10° S visible
24 Sep 3.2 03:59:50 12° SSE 03:59:50 12° SSE 04:00:13 10° SSE visible
